Simultaneous Nadir Overpasses (SNOs) Predictions

Prediction of SNOs between AQUA and METOP-A Satellite Orbit:

Table of predicted SNOs for the next 14.0 days since TLE Epoch: 8/11/2017
Index Date (AQUA) Time (AQUA) Lat,Lon (AQUA) SZA (AQUA ) Date (METOP-A) Time (METOP-A) Lat,Lon (METOP-A) SZA (METOP-A ) Distance(km) Time Diff (sec)
1 08/12/2017 18:54:31 -73.97, 70.25 120.71 08/12/2017 18:54:11 -73.97, 70.35 120.71 3.33 20
2 08/12/2017 19:43:59 74.01,-122.22 59.36 08/12/2017 19:44:49 74.03,-122.15 59.36 3.04 50
3 08/15/2017 13:39:09 73.39, -29.71 59.53 08/15/2017 13:38:02 73.33, -32.04 59.57 74.64 67
4 08/15/2017 14:28:46 -73.97, 136.68 119.84 08/15/2017 14:28:32 -73.94, 136.70 119.87 3.48 14
5 08/15/2017 15:18:14 74.02, -55.78 60.22 08/15/2017 15:19:10 74.00, -55.81 60.20 1.66 56
6 08/18/2017 09:13:27 73.61, 36.27 60.65 08/18/2017 09:12:17 73.55, 34.86 60.66 45.02 70
7 08/18/2017 10:03:00 -73.98,-156.89 118.95 08/18/2017 10:02:51 -73.96,-156.85 118.96 2.30 9
8 08/18/2017 10:52:28 74.02, 10.64 61.12 08/18/2017 10:53:29 74.02, 10.64 61.11 0.15 61
9 08/21/2017 04:47:46 73.83, 102.23 61.81 08/21/2017 04:46:33 73.76, 101.77 61.77 16.24 73
10 08/21/2017 05:37:15 -73.99, -90.48 118.02 08/21/2017 05:37:11 -73.98, -90.40 118.03 2.80 4
11 08/21/2017 06:26:43 74.03, 77.05 62.05 08/21/2017 06:27:49 74.04, 77.09 62.04 1.09 66
12 08/24/2017 00:22:02 73.90, 168.52 62.83 08/24/2017 00:20:51 73.88, 168.44 62.82 3.25 71
13 08/24/2017 01:11:29 -73.95, -23.96 117.11 08/24/2017 01:11:32 -73.94, -24.07 117.11 3.40 3




NCC Satellite Simultaneous Nadir Overpasses (SNOs) Prediction Service
